Location: Tofino
(49.1330°N, 125.9000°W)
Time: 23:48:37
(UTC-07:00)

N. Korean satellite - Visible Passes

Search period start: 20 October 2017 00:00
Search period end: 30 October 2017 00:00
Orbit: 459 x 517 km, 97.2° (Epoch: 20 October)

Date Brightness Start Highest point End Pass type
(mag) Time Alt. Az. Time Alt. Az. Time Alt. Az.
20 Oct 9.7 20:24:15 10° SW 20:26:30 16° W 20:28:43 10° NW visible
21 Oct 8.7 19:59:55 10° SSW 20:02:59 28° W 20:06:03 10° NW visible
22 Oct 7.3 19:36:08 10° S 19:39:33 53° W 19:42:58 10° NNW visible
23 Oct 6.4 19:12:43 10° SSE 19:16:11 78° ENE 19:19:39 10° N visible
24 Oct 6.9 18:49:36 10° SE 18:52:53 40° ENE 18:56:09 10° N visible
24 Oct 9.7 20:24:26 10° SW 20:26:37 16° W 20:28:47 10° NW visible
25 Oct 8.7 20:00:04 10° SSW 20:03:05 28° W 20:06:07 10° NW visible
26 Oct 9.8 07:23:24 10° NE 07:25:48 17° E 07:28:12 10° SE visible
26 Oct 7.3 19:36:15 10° S 19:39:38 52° W 19:43:02 10° NNW visible
27 Oct 6.3 19:12:48 10° SSE 19:16:15 79° ENE 19:19:43 10° N visible
28 Oct 6.9 18:49:40 10° SE 18:52:56 40° ENE 18:56:12 10° N visible
28 Oct 9.7 20:24:32 10° SW 20:26:41 15° W 20:28:49 10° NW visible
29 Oct 8.7 20:00:08 10° SSW 20:03:07 27° W 20:06:09 10° NW visible
